Location: Gwatt
(46.7204°N, 7.6223°E)
Time: 17:17:22
(UTC+00:00)

deb Explorer IX - Pass Details

Date: 27 January 2021
Orbit: 537 x 1102 km, 38.8° (Epoch: 04 March)

Event Time Altitude Azimuth Distance (km) Brightness Sun altitude
Rises 16:54:37 0° 244° (WSW) 3,811 ? -5.4°
Reaches altitude 10° 16:57:38 10° 236° (WSW) 2,795 ? -5.9°
Maximum altitude 17:03:45 38° 172° (S) 1,393 ? -6.8°
Drops below altitude 10° 17:09:09 10° 106° (ESE) 2,451 ? -7.7°
Enters shadow 17:10:19 - 102° (ESE) 2,836 ? -7.9°
Sets 17:11:38 0° 98° (E) 3,293 - -8.1°
